CHINASAT 2D (ZX 2D)

Last updated on Nov. 16, 2019, 4:19 a.m. UTC

1 43920U 19001A   19319.01229667 -.00000323  00000-0  00000+0 0  9993
2 43920   0.0580  91.1873 0000913 152.7217 304.3874  1.00273050  3235
UTC
Height (km)
Latitude
Longitude
Inclination
Orbital Period
UTC large
Height (km)
Speed (km/s)
/
Latitude / Longitude
Inclination (degrees)
Orbital Period (minutes)
Azimuth
Elevation
Range (km)
Doppler Factor
iOS Compass Heading
iOS Angle

Next 30 passes for location: Hong Kong

Rise time Rise Azimuth (degrees) Set time Set Azimuth (degrees) Duration Max altitude (degrees)

No matching passes for this satellites